| time (UTC) | temp F | wind direction | speed MPH | gust MPH | rain 1hr in | rain 24hr in | rain mn in | humidity % | barometer mb |
| 20260505061023 | 52 | 215 | 0.0 | 0.0 | 0.00 | 0.00 | 0.00 | 87 | 1010.8 |
| 20260505055522 | 52 | 192 | 0.0 | 2.0 | 0.00 | 0.00 | 0.00 | 87 | 1010.8 |
| 20260505054027 | 52 | 218 | 0.0 | 3.0 | 0.00 | 0.00 | 0.00 | 87 | 1010.9 |
| 20260505052526 | 52 | 221 | 0.0 | 2.0 | 0.00 | 0.00 | 0.00 | 87 | 1010.8 |
| 20260505051046 | 52 | 234 | 0.0 | 1.0 | 0.00 | 0.00 | 0.00 | 86 | 1011.0 |
| 20260505041014 | 52 | 192 | 0.0 | 1.0 | 0.00 | 0.00 | 0.00 | 84 | 1011.2 |
| 20260505035517 | 52 | 201 | 0.0 | 2.0 | 0.00 | 0.00 | 0.00 | 84 | 1011.2 |
| 20260505034037 | 52 | 200 | 0.0 | 1.0 | 0.00 | 0.00 | 0.00 | 83 | 1011.2 |
| 20260505032518 | 53 | 182 | 0.0 | 0.0 | 0.00 | 0.00 | 0.00 | 83 | 1011.2 |
| 20260505031018 | 53 | 210 | 0.0 | 4.0 | 0.00 | 0.00 | 0.00 | 82 | 1011.4 |
| 20260505025537 | 53 | 197 | 0.0 | 4.0 | 0.00 | 0.00 | 0.00 | 82 | 1011.4 |
| 20260505024020 | 53 | 229 | 0.0 | 0.0 | 0.00 | 0.00 | 0.00 | 82 | 1011.4 |
| 20260505022519 | 53 | 198 | 0.0 | 3.0 | 0.00 | 0.00 | 0.00 | 82 | 1011.6 |
| 20260505021042 | 53 | 221 | 0.0 | 9.0 | 0.00 | 0.00 | 0.00 | 81 | 1011.5 |
| 20260505015520 | 53 | 226 | 0.0 | 7.0 | 0.00 | 0.00 | 0.00 | 80 | 1011.4 |
| 20260505014025 | 53 | 234 | 0.0 | 6.0 | 0.00 | 0.00 | 0.00 | 79 | 1011.3 |
| 20260505012522 | 54 | 233 | 0.0 | 2.0 | 0.00 | 0.00 | 0.00 | 78 | 1011.1 |
| 20260505011027 | 54 | 198 | 0.0 | 8.0 | 0.00 | 0.00 | 0.00 | 77 | 1010.9 |
| 20260505005546 | 54 | 184 | 0.0 | 16.0 | 0.00 | 0.00 | 0.00 | 76 | 1010.7 |
| 20260505004026 | 55 | 211 | 0.0 | 8.0 | 0.00 | 0.00 | 0.00 | 74 | 1010.5 |
| 20260505002528 | 55 | 234 | 0.0 | 6.0 | 0.00 | 0.00 | 0.00 | 72 | 1010.2 |
| 20260505001029 | 55 | 217 | 2.0 | 14.0 | 0.00 | 0.00 | 0.00 | 69 | 1009.9 |
| 20260504235512 | 56 | 227 | 1.0 | 12.0 | 0.00 | 0.00 | 0.00 | 69 | 1009.7 |
| 20260504234032 | 56 | 189 | 0.0 | 10.0 | 0.00 | 0.00 | 0.00 | 70 | 1009.7 |
| 20260504232515 | 56 | 215 | 1.0 | 12.0 | 0.00 | 0.00 | 0.00 | 69 | 1009.4 |
| 20260504231015 | 57 | 232 | 1.0 | 9.0 | 0.00 | 0.00 | 0.00 | 66 | 1009.4 |
| 20260504225518 | 58 | 240 | 2.0 | 16.0 | 0.00 | 0.00 | 0.00 | 64 | 1009.3 |
| 20260504224018 | 59 | 203 | 2.0 | 16.0 | 0.00 | 0.00 | 0.00 | 60 | 1009.2 |
| 20260504222540 | 60 | 225 | 2.0 | 16.0 | 0.00 | 0.00 | 0.00 | 57 | 1009.0 |
| 20260504221020 | 61 | 259 | 0.0 | 15.0 | 0.00 | 0.00 | 0.00 | 55 | 1009.0 |
| 20260504215539 | 61 | 223 | 1.0 | 19.0 | 0.00 | 0.00 | 0.00 | 52 | 1008.9 |
| 20260504214023 | 61 | 138 | 3.0 | 14.0 | 0.00 | 0.00 | 0.00 | 52 | 1008.9 |
| 20260504212521 | 61 | 201 | 5.0 | 24.0 | 0.00 | 0.00 | 0.00 | 52 | 1008.9 |
| 20260504211025 | 62 | 220 | 2.0 | 20.0 | 0.00 | 0.00 | 0.00 | 50 | 1008.8 |
| 20260504205525 | 62 | 190 | 4.0 | 20.0 | 0.00 | 0.00 | 0.00 | 51 | 1008.7 |
| 20260504204030 | 62 | 188 | 4.0 | 17.0 | 0.00 | 0.00 | 0.00 | 51 | 1008.8 |
| 20260504202529 | 63 | 243 | 4.0 | 20.0 | 0.00 | 0.00 | 0.00 | 50 | 1008.5 |
| 20260504201013 | 63 | 165 | 6.0 | 25.0 | 0.00 | 0.00 | 0.00 | 46 | 1008.5 |
| 20260504195532 | 64 | 245 | 4.0 | 15.0 | 0.00 | 0.00 | 0.00 | 43 | 1008.5 |
| 20260504194014 | 64 | 201 | 8.0 | 21.0 | 0.00 | 0.00 | 0.00 | 41 | 1008.6 |
| 20260504192514 | 64 | 233 | 7.0 | 23.0 | 0.00 | 0.00 | 0.00 | 42 | 1008.8 |
| 20260504191019 | 65 | 227 | 6.0 | 20.0 | 0.00 | 0.00 | 0.00 | 41 | 1008.8 |
| 20260504185517 | 65 | 219 | 6.0 | 22.0 | 0.00 | 0.00 | 0.00 | 40 | 1009.0 |
| 20260504184021 | 65 | 187 | 5.0 | 17.0 | 0.00 | 0.00 | 0.00 | 41 | 1009.0 |
| 20260504182539 | 65 | 216 | 4.0 | 20.0 | 0.00 | 0.00 | 0.00 | 43 | 1009.1 |
| 20260504181037 | 66 | 188 | 2.0 | 14.0 | 0.00 | 0.00 | 0.00 | 43 | 1008.8 |
| 20260504175520 | 66 | 246 | 2.0 | 16.0 | 0.00 | 0.00 | 0.00 | 42 | 1008.8 |
| 20260504174039 | 66 | 220 | 3.0 | 24.0 | 0.00 | 0.00 | 0.00 | 42 | 1008.7 |
| 20260504172521 | 66 | 235 | 3.0 | 16.0 | 0.00 | 0.00 | 0.00 | 39 | 1009.0 |
| 20260504171021 | 66 | 149 | 2.0 | 19.0 | 0.00 | 0.00 | 0.00 | 40 | 1009.1 |
| 20260504151053 | 65 | 186 | 2.0 | 15.0 | 0.00 | 0.01 | 0.00 | 44 | 1010.0 |
| 20260504141018 | 64 | 151 | 0.0 | 10.0 | 0.00 | 0.01 | 0.00 | 46 | 1010.5 |
| 20260504081020 | 45 | 283 | 0.0 | 0.0 | 0.00 | 0.01 | 0.00 | 73 | 1010.5 |